EW5043 Weather Reports


time (UTC)temp
C
wind
direction
speed
KPH
gust
KPH
rain 1hr
cm
rain 24hr
cm
rain mn
cm
humidity
%
barometer
mb
20200124011726 0 180 0.0 0.0 0.00 0.00 0.00 72 1026.0
20200124003104 0 180 0.0 0.0 0.00 0.00 0.00 65 1026.0
20200124000011 1 180 0.0 0.0 0.00 0.00 0.00 58 1025.8
20200123233008 0 180 0.0 0.0 0.00 0.00 0.00 67 1025.5
20200123231907 0 180 0.0 0.0 0.00 0.00 0.00 70 1025.2
20200123224652 1 180 0.0 0.0 0.00 0.00 0.00 56 1024.9
20200123223115 1 180 0.0 0.0 0.00 0.00 0.00 57 1024.9
20200123220143 2 180 11.3 0.0 0.00 0.00 0.00 54 1024.5
20200123214643 2 180 0.0 0.0 0.00 0.00 0.00 62 1024.6
20200123213108 2 180 0.0 0.0 0.00 0.00 0.00 61 1024.6
20200123210050 2 180 0.0 0.0 0.00 0.00 0.00 57 1024.3
20200123204534 3 180 11.3 0.0 0.00 0.00 0.00 53 1024.5
20200123203042 2 179 11.3 0.0 0.00 0.00 0.00 50 1024.5
20200123201508 2 179 11.3 0.0 0.00 0.00 0.00 52 1024.7
20200123194701 3 173 8.0 0.0 0.00 0.00 0.00 50 1024.9
20200123193004 3 173 6.4 0.0 0.00 0.00 0.00 47 1024.7
20200123191738 2 184 3.2 0.0 0.00 0.00 0.00 50 1024.6
20200123184636 2 184 3.2 0.0 0.00 0.00 0.00 51 1024.8
20200123183051 2 208 1.6 0.0 0.00 0.00 0.00 56 1025.1
20200123180024 2 208 0.0 0.0 0.00 0.00 0.00 53 1025.5
20200123174526 1 208 3.2 0.0 0.00 0.00 0.00 55 1025.7
20200123173037 1 208 1.6 0.0 0.00 0.00 0.00 51 1025.8
20200123171521 1 208 8.0 0.0 0.00 0.00 0.00 52 1026.0
20200123170021 1 207 11.3 0.0 0.00 0.00 0.00 53 1026.2
20200123163321 1 200 11.3 0.0 0.00 0.00 0.00 56 1026.7
20200123162038 0 203 11.3 0.0 0.00 0.00 0.00 58 1027.0
20200123160221 0 199 14.5 0.0 0.00 0.00 0.00 56 1027.0
20200123153113 -1 184 12.9 0.0 0.00 0.00 0.00 62 1026.9
20200123151558 -1 184 12.9 0.0 0.00 0.00 0.00 64 1026.7
20200123144510 -2 184 12.9 0.0 0.00 0.00 0.00 67 1026.6
20200123143030 -2 185 12.9 0.0 0.00 0.00 0.00 69 1026.6
20200123141513 -3 185 12.9 0.0 0.00 0.00 0.00 70 1026.5
20200123140026 -3 184 12.9 0.0 0.00 0.00 0.00 70 1026.5
20200123134653 -3 183 12.9 0.0 0.00 0.00 0.00 70 1026.6
20200123133001 -3 183 12.9 0.0 0.00 0.00 0.00 68 1026.5
20200123131652 -3 179 16.1 0.0 0.00 0.00 0.00 66 1026.3
20200123130153 -2 180 12.9 0.0 0.00 0.00 0.00 66 1026.2
20200123124643 -2 188 11.3 0.0 0.00 0.00 0.00 69 1026.2
20200123121617 -2 198 11.3 0.0 0.00 0.00 0.00 69 1026.1
20200123120030 -2 199 16.1 0.0 0.00 0.00 0.00 68 1026.0
20200123114525 -2 199 12.9 0.0 0.00 0.00 0.00 71 1026.0
20200123111518 -2 200 12.9 0.0 0.00 0.00 0.00 75 1026.1
20200123110029 -2 200 12.9 0.0 0.00 0.00 0.00 76 1026.0
20200123104517 -2 201 14.5 0.0 0.00 0.00 0.00 74 1026.1
20200123101505 -2 202 12.9 0.0 0.00 0.00 0.00 74 1026.1
20200123100337 -2 200 14.5 0.0 0.00 0.00 0.00 73 1026.2
20200123094653 -2 205 12.9 0.0 0.00 0.00 0.00 74 1026.2
20200123091654 -2 201 14.5 0.0 0.00 0.00 0.00 72 1026.2
20200123084608 -2 202 12.9 0.0 0.00 0.00 0.00 72 1026.2
20200123080053 -1 211 12.9 0.0 0.00 0.00 0.00 69 1026.3
20200123074603 -1 205 11.3 0.0 0.00 0.00 0.00 70 1026.2
20200123071537 -1 211 8.0 0.0 0.00 0.00 0.00 69 1026.3
20200123070023 -1 211 8.0 0.0 0.00 0.00 0.00 70 1026.2
20200123064509 -1 204 3.2 0.0 0.00 0.00 0.00 73 1026.2
20200123063032 -1 204 11.3 0.0 0.00 0.00 0.00 75 1025.9
20200123061650 -1 203 11.3 0.0 0.00 0.00 0.00 76 1026.1
20200123054836 -1 204 12.9 0.0 0.00 0.00 0.00 73 1026.2
20200123053230 0 203 11.3 0.0 0.00 0.00 0.00 71 1026.2
20200123051627 0 205 11.3 0.0 0.00 0.00 0.00 68 1026.5
20200123041607 0 207 11.3 0.0 0.00 0.00 0.00 67 1026.4
20200123034557 0 206 11.3 0.0 0.00 0.00 0.00 71 1026.2
20200123031515 -1 205 8.0 0.0 0.00 0.00 0.00 71 1026.3
20200123023239 -2 205 0.0 0.0 0.00 0.00 0.00 78 1026.5
20200123013155 -1 205 0.0 0.0 0.00 0.00 0.00 72 1027.0